TimeEDT,TemperatureF,Dew PointF,Humidity,Sea Level PressureIn,VisibilityMPH,Wind Direction,Wind SpeedMPH,Gust SpeedMPH,PrecipitationIn,Events,Conditions,WindDirDegrees,DateUTC
12:53 AM,72.0,66.9,84,30.04,10.0,South,3.5,-,N/A,,Clear,170,2013-05-12 04:53:00
1:53 AM,71.1,66.9,87,30.01,10.0,SE,4.6,-,N/A,,Clear,140,2013-05-12 05:53:00
2:53 AM,73.0,69.1,87,29.97,10.0,SSE,4.6,-,N/A,,Clear,150,2013-05-12 06:53:00
3:53 AM,72.0,69.1,91,29.97,10.0,Calm,Calm,-,N/A,,Clear,0,2013-05-12 07:53:00
4:53 AM,71.1,69.1,93,29.96,10.0,Calm,Calm,-,N/A,,Clear,0,2013-05-12 08:53:00
5:53 AM,71.1,69.1,93,29.97,10.0,SSW,4.6,-,N/A,,Clear,200,2013-05-12 09:53:00
6:40 AM,71.6,69.8,94,30.00,10.0,NW,3.5,-,N/A,,Scattered Clouds,320,2013-05-12 10:40:00
6:53 AM,72.0,70.0,93,30.01,10.0,NW,4.6,-,N/A,,Partly Cloudy,320,2013-05-12 10:53:00
7:07 AM,73.4,71.6,94,30.01,10.0,NW,5.8,-,N/A,,Mostly Cloudy,320,2013-05-12 11:07:00
7:15 AM,73.4,71.6,94,30.02,10.0,NW,4.6,-,N/A,,Mostly Cloudy,320,2013-05-12 11:15:00
7:23 AM,73.4,71.6,94,30.03,10.0,NNW,6.9,-,N/A,,Mostly Cloudy,330,2013-05-12 11:23:00
7:45 AM,75.2,71.6,89,30.03,10.0,Calm,Calm,-,N/A,,Scattered Clouds,0,2013-05-12 11:45:00
7:53 AM,75.9,73.0,91,30.03,10.0,Calm,Calm,-,N/A,,Mostly Cloudy,0,2013-05-12 11:53:00
8:18 AM,77.0,73.4,89,30.03,10.0,NNW,3.5,-,N/A,,Scattered Clouds,340,2013-05-12 12:18:00
8:53 AM,77.0,73.0,88,30.04,10.0,NW,3.5,-,N/A,,Overcast,310,2013-05-12 12:53:00
9:53 AM,80.1,71.1,74,30.04,10.0,WNW,8.1,-,N/A,,Mostly Cloudy,290,2013-05-12 13:53:00
10:28 AM,82.4,69.8,66,30.04,10.0,WNW,8.1,-,N/A,,Mostly Cloudy,290,2013-05-12 14:28:00
10:40 AM,80.6,69.8,70,30.04,10.0,West,5.8,-,N/A,,Mostly Cloudy,270,2013-05-12 14:40:00
10:53 AM,81.0,69.1,67,30.04,10.0,WNW,6.9,-,N/A,,Mostly Cloudy,290,2013-05-12 14:53:00
11:53 AM,82.9,69.1,63,30.04,10.0,West,6.9,-,N/A,,Mostly Cloudy,270,2013-05-12 15:53:00
12:53 PM,84.9,69.1,59,30.03,10.0,SW,10.4,-,N/A,,Scattered Clouds,230,2013-05-12 16:53:00
1:53 PM,84.9,68.0,57,30.02,10.0,West,9.2,-,N/A,,Scattered Clouds,260,2013-05-12 17:53:00
2:53 PM,84.9,68.0,57,30.01,10.0,West,12.7,-,N/A,,Clear,270,2013-05-12 18:53:00
3:53 PM,84.9,66.9,55,30.01,10.0,West,12.7,-,N/A,,Clear,260,2013-05-12 19:53:00
4:53 PM,82.9,66.9,58,30.01,10.0,WNW,10.4,-,N/A,,Clear,290,2013-05-12 20:53:00
5:53 PM,80.1,66.0,62,30.01,10.0,NNW,12.7,-,N/A,,Clear,330,2013-05-12 21:53:00
6:53 PM,79.0,64.9,62,30.00,10.0,NW,10.4,-,N/A,,Clear,310,2013-05-12 22:53:00
7:53 PM,75.9,64.9,69,30.02,10.0,NW,8.1,-,N/A,,Clear,320,2013-05-12 23:53:00
8:29 PM,75.2,66.2,73,30.03,10.0,WNW,4.6,-,N/A,,Partly Cloudy,300,2013-05-13 00:29:00
8:53 PM,73.9,66.0,76,30.04,10.0,NW,3.5,-,N/A,,Partly Cloudy,310,2013-05-13 00:53:00
9:53 PM,73.9,66.9,79,30.05,10.0,NW,5.8,-,N/A,,Clear,310,2013-05-13 01:53:00
10:53 PM,73.9,66.0,76,30.06,10.0,NW,5.8,-,N/A,,Clear,310,2013-05-13 02:53:00
11:53 PM,72.0,66.0,81,30.06,10.0,WNW,3.5,-,N/A,,Clear,300,2013-05-13 03:53:00